Flag for U.S.A. Weather past 2 weeks in Jacksonville, Florida, U.S.A.

Now
61 °F

Fog.


Feels Like: 61 °F
Forecast: 57 / 65 °F
Wind: 13 mph from Northeast

Location: Jacksonville Naval Air Station

Current Time: Dec 21, 2014 at 8:36:03 AM

Latest Report: Dec 21, 2014 at 7:53 AM


Visibility: 6 mi

Pressure: 30.11 "Hg

Humidity: 87%

Dew point: 57 °F

Location of JacksonvilleLocation

Historic Weather in Jacksonville — Graph

°F

Jacksonville temperature yesterday

Maximum temperature yesterday: 70 °F (at 2:53 PM)
Minimum temperature yesterday: 59 °F (at 1:53 AM)
Average temperature yesterday: 63 °F

Past Weeks' High & Low Weather Summary

 TemperatureHumidityPressure
High78 °F (Dec 6, 3:53 PM)91% (Dec 6, 6:53 AM)30.28 "Hg (Dec 6, 6:53 AM)
Low40 °F (Dec 13, 7:53 AM)21% (Dec 19, 3:53 PM)29.99 "Hg (Dec 9, 2:53 PM)
Average57 °F62%30.12 "Hg
* Reported Dec 6 6:53 AM — Dec 21 6:53 AM, Jacksonville, Weather by CustomWeather, © 2014

Note: Actual official high and low records may vary slightly from our data, if they occured in-between our weather recording intervals... More about our weather records

Advertising

Jacksonville weather history for previous 24 hours

 ConditionsComfort  
Time TempWeatherWind HumidityBarometerVisibility
6:53 AM
Dec 21
62 °FLow clouds.12 mph83%30.09 "Hg7 mi
5:53 AM61 °FLow clouds.9 mph87%30.09 "Hg8 mi
4:53 AM61 °FLow clouds.10 mph87%30.09 "Hg7 mi
3:53 AM61 °FLow clouds.10 mph87%30.09 "Hg7 mi
2:53 AM61 °FLow clouds.8 mph87%30.10 "Hg7 mi
1:53 AM61 °FFog.9 mph87%30.11 "Hg6 mi
12:53 AM62 °FLight rain. Low clouds.10 mph83%30.12 "Hg7 mi
11:53 PM
Dec 20
62 °FLow clouds.8 mph83%30.12 "Hg10 mi
10:53 PM63 °FLow clouds.8 mph81%30.13 "Hg9 mi
9:53 PM62 °FLow clouds.8 mph83%30.13 "Hg9 mi
8:53 PM62 °FLow clouds.9 mph80%30.12 "Hg10 mi
7:53 PM62 °FLow clouds.9 mph78%30.12 "Hg10 mi
6:53 PM61 °FPassing clouds.8 mph81%30.12 "Hg10 mi
5:53 PM62 °FPassing clouds.10 mph75%30.10 "Hg10 mi
4:53 PM65 °FBroken clouds.13 mph61%30.09 "Hg10 mi
3:53 PM68 °FScattered clouds.13 mph53%30.07 "Hg10 mi
2:53 PM70 °FBroken clouds.9 mph47%30.06 "Hg10 mi
1:53 PM69 °FPartly sunny.9 mph44%30.07 "Hg10 mi
12:53 PM68 °FPartly sunny.6 mph49%30.10 "Hg10 mi
11:53 AM66 °FPartly sunny.7 mph52%30.13 "Hg10 mi
10:53 AM65 °FBroken clouds.8 mph61%30.14 "Hg10 mi
9:53 AM62 °FOvercast.7 mph75%30.15 "Hg10 mi
8:53 AM60 °FPartly sunny.7 mph80%30.13 "Hg10 mi
Weather by CustomWeather, © 2014

See weather overviewHow to use our weather pages